User: anonymous   Login
Location: Unspecified
(0.0000°N, 0.0000°E)
Time: 04:01:15
(UTC+02:00)
Language:

Cosmos 2263 Rocket - Orbit

View from above orbital plane
View from above orbital plane
View from above satellite
View from above satellite

Ground track
Ground track

The orbit data is extracted from the following two-line orbital elements,

1 22803U 93059B   16267.97612536  .00000264  00000-0  15586-3 0  9992
2 22803  70.9885  90.3965 0015213  68.2866 291.9876 14.16752441190573
Epoch (UTC): 23 September 2016 23:25:37
Eccentricity: 0.0015213
inclination: 70.9885°
perigee height: 825 km
apogee height: 847 km
right ascension of ascending node: 90.3965°
argument of perigee: 68.2866°
revolutions per day: 14.16752441
mean anomaly at epoch: 291.9876°
orbit number at epoch: 19057

The dashed part of the orbit path shows where the satellite is in the earth's shadow,  

DLR